Location: Rowland
(34.5359°N, 79.2929°W)
Time: 21:20:00
(UTC+00:00)

Altair - Visible Passes

Search period start: 26 February 2024 00:00
Search period end: 07 March 2024 00:00
Orbit: 1501 x 1682 km, 47.2° (Epoch: 25 February)

Date Brightness Start Highest point End Pass type
(mag) Time Alt. Az. Time Alt. Az. Time Alt. Az.
28 Feb 9.8 11:17:58 10° SSE 11:23:35 18° SE 11:29:09 10° E visible
29 Feb 9.8 10:53:38 10° SSE 10:58:30 16° ESE 11:03:20 10° E visible
01 Mar 9.9 10:29:32 10° SSE 10:33:27 13° ESE 10:37:20 10° E visible
02 Mar 9.9 10:05:53 10° SE 10:08:23 11° ESE 10:10:50 10° ESE visible
04 Mar 8.5 11:12:42 10° SSW 11:21:21 47° SE 11:29:58 10° ENE visible
05 Mar 8.6 10:47:44 10° SSW 10:56:14 43° SE 11:04:40 10° ENE visible
06 Mar 8.6 10:22:49 10° SSW 10:31:07 39° SE 10:39:21 10° ENE visible
